Regional Weather Roundup
Issued by NWS San Diego, CA

Home | Current Version | Previous Version | Text Only | Print | Product List | Glossary On
Versions: 1 2 3 4 5 6 7 8 9 10 11 12 13 14 15 16 17 18 19 20 21 22 23 24 25 26 27 28 29 30 31 32 33 34 35 36 37 38 39 40 41 42 43 44 45 46 47 48 49 50
000
ASUS46 KSGX 280511
RWRSGX

SAN DIEGO HOURLY WEATHER ROUNDUP
NATIONAL WEATHER SERVICE SAN DIEGO CA
900 PM PST FRI FEB 27 2015

NOTE: "FAIR" INDICATES FEW OR NO CLOUDS BELOW 12,000 FEET WITH NO
SIGNIFICANT WEATHER AND/OR OBSTRUCTIONS TO VISIBILITY.

CAZ042-043-060-061-PZZ750-775-280600-

GREATER SAN DIEGO AREA

CITY           SKY/WX    TMP DP  RH WIND       PRES   REMARKS
LINDBERGH FLD  PTCLDY    61  51  70 W7        29.83R
NATIONAL CITY    N/A     60  54  79 SW3       29.83R
CHULA VISTA      N/A     60  55  82 W7        29.76R
IMPERIAL BEACH LGT RAIN  60  52  74 W12       29.83R
BROWN FIELD    CLOUDY    58  51  78 W8        29.82R
MIRAMAR MCAS   MOCLDY    59  51  75 SW5       29.81R
MONTGOMERY FLD MOCLDY    59  51  75 SW6       29.81S

$$

NORTH SAN DIEGO COUNTY

CITY           SKY/WX    TMP DP  RH WIND       PRES   REMARKS
CAMP PENDLETON CLOUDY    58  52  80 SW5       29.79R
OCEANSIDE AP   MOCLDY    60  52  74 SW6       29.78R
OCEANSIDE HBR    N/A     61  56  83 SW13      29.82R
VISTA            N/A     57  51  80 CALM      29.78R
CARLSBAD       CLOUDY    60  52  74 SW10      29.79R
DEL MAR          N/A     59  54  82 NW2       29.83R
LA JOLLA SCRIP   N/A     60  21  22 CALM      29.79R
FALLBROOK        N/A     57  57 100 SW5       29.79S
ESCONDIDO        N/A     57  53  85 SW6       29.82R
SAN MARCOS       N/A     57  53  85 CALM      29.79R
POWAY            N/A     57  53  85 SW6       29.83R

$$

EAST SAN DIEGO COUNTY

CITY           SKY/WX    TMP DP  RH WIND       PRES   REMARKS
RAMONA         LGT RAIN  53  50  89 SW7       29.80R
SANTEE LAKES     N/A     58  54  85 SW1       29.82R
LA MESA          N/A     58  53  81 CALM      29.76R
JAMUL            N/A     55  52  91 CALM      29.82R
DESCANSO N       N/A     47  45  93 W7        29.73R
MT. LAGUNA OBS   N/A     37  37 100 SW25      29.39S WCI  25
CAMPO            N/A     50  47  89 SW15G24   29.76S

$$

ORANGE COUNTY AND THE LOS ANGELES BASIN

CITY           SKY/WX    TMP DP  RH WIND       PRES   REMARKS
JOHN WAYNE AP  MOCLDY    63  52  67 S5        29.78R
LAGUNA BEACH     N/A     58  54  87 CALM      29.75R
LAKE FOREST FR   N/A     56  50  82 SW3       29.69R
SANTA ANA        N/A     61  54  78 CALM      29.73R
HUNTINGTON BCH   N/A     60  53  77 CALM      29.79R
LOS ALAMITOS   MOCLDY    58  52  79 SW6       29.78R
FULLERTON      CLOUDY    62  49  62 W3        29.77R
LONG BEACH     PTCLDY    62  51  67 SW9       29.77R
L.A. AP        MOCLDY    58  51  78 SW20      29.76S
L.A. DOWNTOWN  CLOUDY    60  51  72 CALM      29.76R

$$

THE INLAND EMPIRE

CITY           SKY/WX    TMP DP  RH WIND       PRES   REMARKS
CORONA         MOCLDY    58  51  77 W6        29.78R
CHINO          CLOUDY    58  53  84 W7        29.78R
ONTARIO        CLOUDY    56  51  84 SW10      29.77R
SAN BERNARDINO CLOUDY    55  48  76 SW6       29.77R
RIVERSIDE AP   CLOUDY    58  51  78 W7        29.77R
RIV CYN CREST    N/A     57  57  99 W1          N/A
MORENO VALLEY    N/A     55  53  95 SE2       28.96R
MARCH ARB      CLOUDY    54  50  86 S6        29.77R
HORSETHIEF CYN   N/A     56  46  68 CALM      29.76R
PERRIS           N/A     53  51  93 S5          N/A
MENIFEE          N/A     55  52  91 CALM      29.85R
HEMET EAST       N/A     52  46  79 CALM      29.79R
FRENCH VALLEY  FAIR      54  50  87 SW10G16   29.78R
TEMECULA         N/A     56  53  91 SW8       29.76R

$$

SAN BERNARDINO AND RIVERSIDE COUNTY MOUNTAINS

CITY           SKY/WX    TMP DP  RH WIND       PRES   REMARKS
BIG BEAR AP    CLOUDY    36  32  87 SW13G21   29.75S WCI  27
PINE COVE        N/A     37  37 100 W3        29.74R

$$

SOUTHERN DESERT INCLUDING THE COACHELLA VALLEY

CITY           SKY/WX    TMP DP  RH WIND       PRES   REMARKS
PALM SPRINGS   PTCLDY    66  42  41 E8        29.65R
THOUSAND PALMS   N/A     66  43  42 NW9       29.64R
PALM DESERT      N/A     64  45  49 SE1         N/A
THERMAL        CLEAR     66  43  43 NW8       29.63R
BLYTHE         CLEAR     66  44  45 SW18      29.61R
IMPERIAL AP    CLEAR     65  44  46 W25G32    29.68R
EL CENTRO NAS  CLEAR     65  44  46 SW30G38   29.69R
YUMA AZ        MOCLDY    67  44  43 NW8       29.69R
MEXICALI       PTCLDY    64  43  45 NW12      29.68

$$

UPPER DESERT

CITY           SKY/WX    TMP DP  RH WIND       PRES   REMARKS
VICTORVILLE AP CLEAR     48  41  76 CALM      29.72R
HESPERIA         N/A     49  44  84 W8        29.85R
APPLE VALLEY     N/A     51  42  72 SW7G20    29.82R
PALMDALE       PTCLDY    50  45  83 SW13      29.73R
LANCASTER      PTCLDY    50  44  80 SW16      29.72R
EDWARDS AFB    PTCLDY    51  43  76 SW14      29.68R
DAGGETT        CLEAR     57  40  52 SW29G36   29.64R
29 PALMS N     CLEAR     55  42  61 SW10      29.73R
NEEDLES        PTCLDY    68  33  27 W15       29.59R

$$

REGIONAL REPORTS

CITY           SKY/WX    TMP DP  RH WIND       PRES   REMARKS
SANTA BARBARA  PTCLDY    59  46  62 NW10G18   29.76S
SANDBERG       FOG       45  41  86 SW7       29.76S VSB 1/4
MT. WILSON       N/A     39  39 100 SW7         N/A  WCI  34
LAS VEGAS NV   PTCLDY    60  37  42 S15G24    29.52S
PHOENIX AZ     PTCLDY    67  37  33 SW7       29.67R
TIJUANA        MOCLDY    59  50  72 W9        29.85R
ENSENADA NW      N/A     60  32  34 S1        29.84R

$$

OFFSHORE ISLANDS

CITY           SKY/WX    TMP DP  RH WIND       PRES   REMARKS
CATALINA ARPT  CLOUDY    50  50 100 W16       29.81R
SAN NICOLAS IS PTCLDY   N/A N/A N/A W28G37    29.80S

$$

MARINE AND OFFSHORE BUOY REPORTS

STATION/POSITION SKY/WX   TEMP    WIND        PRES    SWELL
                          AIR SEA DIR/SP/G            HT/PER/DIR
                          (F)     (DEG/KT/KT) (MB)    (FT/S/D)
TANNER BANKS               60 61  310/ 17/ 19 1010.7R
S CLEMENTE BASIN           61 62  280/ 19/ 23 1009.5R   3/280/ 9
SAN NICOLAS IS.               60                N/A     3/290/11
SO. S. ROSA ISLA           58 60  310/ 21/ 25 1009.2R   5/ 8
W. S. BARBARA CH           57 59  330/ 19/ 23 1008.9R   3/290/15
S. MONICA BASIN            60 63  290/ 21/ 27 1007.6R   2/290/14
S PEDRO CHANNEL               62                N/A     2/280/15
DANA POINT                    62                N/A     2/220/14
CMP PENDLETON NS              62                N/A     2/210/15
OCEANSIDE OFFSHR              62                N/A     2/210/14
TORREY PINES OTR              63                N/A     2/220/14
LA JOLLA 1                 61 63  250/ 10/ 11 1009.4R
MISSION BAY BUOY              63                N/A     2/270/11
SAN DIEGO BAY                 65              1009.9F
POINT LOMA SOUTH              63                N/A     2/240/15

$$




USA.gov is the U.S. government's official web portal to all federal, state and local government web resources and services.